| time (UTC) | temp C | wind direction | speed KPH | gust KPH | rain 1hr cm | rain 24hr cm | rain mn cm | humidity % | barometer mb |
| 20260902022005 | 12 | 232 | 8.0 | 16.1 | 0.00 | 0.00 | 0.00 | 72 | 1014.5 |
| 20260902021525 | 13 | 219 | 6.4 | 14.5 | 0.00 | 0.00 | 0.00 | 72 | 1014.5 |
| 20260902021007 | 13 | 191 | 4.8 | 14.5 | 0.00 | 0.00 | 0.00 | 73 | 1014.5 |
| 20260902020504 | 13 | 192 | 6.4 | 14.5 | 0.00 | 0.00 | 0.00 | 73 | 1014.7 |
| 20260902020004 | 13 | 208 | 4.8 | 14.5 | 0.00 | 0.00 | 0.00 | 70 | 1014.8 |
| 20260902015504 | 13 | 147 | 1.6 | 4.8 | 0.00 | 0.00 | 0.00 | 70 | 1014.9 |
| 20260902015004 | 13 | 71 | 0.0 | 3.2 | 0.00 | 0.00 | 0.00 | 71 | 1014.9 |
| 20260902014507 | 13 | 70 | 0.0 | 4.8 | 0.00 | 0.00 | 0.00 | 73 | 1015.0 |
| 20260902014006 | 12 | 101 | 1.6 | 11.3 | 0.00 | 0.00 | 0.00 | 72 | 1015.1 |
| 20260902013510 | 12 | 98 | 4.8 | 12.9 | 0.00 | 0.00 | 0.00 | 73 | 1015.2 |
| 20260902013007 | 12 | 121 | 8.0 | 12.9 | 0.00 | 0.00 | 0.00 | 73 | 1015.2 |
| 20260902012508 | 12 | 77 | 3.2 | 9.7 | 0.00 | 0.00 | 0.00 | 74 | 1015.2 |
| 20260902012008 | 12 | 72 | 1.6 | 14.5 | 0.00 | 0.00 | 0.00 | 74 | 1015.2 |
| 20260902011510 | 12 | 100 | 4.8 | 14.5 | 0.00 | 0.00 | 0.00 | 75 | 1015.3 |
| 20260902011012 | 12 | 210 | 4.8 | 8.0 | 0.00 | 0.00 | 0.00 | 77 | 1015.5 |
| 20260902010503 | 11 | 192 | 4.8 | 9.7 | 0.00 | 0.00 | 0.00 | 76 | 1015.5 |
| 20260902010023 | 11 | 142 | 4.8 | 14.5 | 0.00 | 0.00 | 0.00 | 76 | 1015.6 |
| 20260902005511 | 11 | 117 | 3.2 | 14.5 | 0.00 | 0.00 | 0.00 | 76 | 1015.7 |
| 20260902005005 | 11 | 172 | 4.8 | 12.9 | 0.00 | 0.00 | 0.00 | 77 | 1015.8 |
| 20260902004504 | 11 | 213 | 3.2 | 12.9 | 0.00 | 0.00 | 0.00 | 77 | 1015.9 |
| 20260902004006 | 11 | 166 | 6.4 | 12.9 | 0.00 | 0.00 | 0.00 | 78 | 1015.9 |
| 20260902003504 | 11 | 180 | 4.8 | 11.3 | 0.00 | 0.00 | 0.00 | 78 | 1015.9 |
| 20260902003010 | 11 | 198 | 6.4 | 11.3 | 0.00 | 0.00 | 0.00 | 79 | 1015.8 |
| 20260902002505 | 10 | 167 | 4.8 | 9.7 | 0.00 | 0.00 | 0.00 | 79 | 1015.9 |
| 20260902002010 | 10 | 180 | 4.8 | 12.9 | 0.00 | 0.00 | 0.00 | 78 | 1016.0 |
| 20260902001514 | 10 | 169 | 8.0 | 12.9 | 0.00 | 0.00 | 0.00 | 79 | 1016.1 |
| 20260902001006 | 10 | 129 | 4.8 | 14.5 | 0.00 | 0.00 | 0.00 | 79 | 1016.1 |
| 20260902000512 | 10 | 180 | 6.4 | 14.5 | 0.00 | 0.00 | 0.00 | 79 | 1016.0 |
| 20260902000015 | 10 | 195 | 6.4 | 14.5 | 0.00 | 0.00 | 0.00 | 80 | 1016.1 |
| 20260901235514 | 10 | 172 | 8.0 | 12.9 | 0.00 | 0.00 | 0.00 | 80 | 1016.1 |
| 20260901235011 | 10 | 185 | 8.0 | 12.9 | 0.00 | 0.00 | 0.00 | 80 | 1016.0 |
| 20260901234510 | 10 | 198 | 8.0 | 14.5 | 0.00 | 0.00 | 0.00 | 81 | 1015.9 |
| 20260901234018 | 10 | 159 | 8.0 | 14.5 | 0.00 | 0.00 | 0.00 | 81 | 1016.0 |
| 20260901233507 | 10 | 193 | 6.4 | 12.9 | 0.00 | 0.00 | 0.00 | 81 | 1016.0 |
| 20260901233006 | 10 | 160 | 6.4 | 12.9 | 0.00 | 0.00 | 0.00 | 81 | 1016.1 |
| 20260901232506 | 10 | 172 | 4.8 | 9.7 | 0.00 | 0.00 | 0.00 | 82 | 1016.1 |
| 20260901232004 | 10 | 143 | 4.8 | 12.9 | 0.00 | 0.00 | 0.00 | 82 | 1016.1 |
| 20260901231510 | 10 | 175 | 8.0 | 12.9 | 0.00 | 0.00 | 0.00 | 82 | 1016.1 |
| 20260901231005 | 10 | 149 | 6.4 | 14.5 | 0.00 | 0.00 | 0.00 | 82 | 1016.1 |
| 20260901230506 | 10 | 159 | 6.4 | 14.5 | 0.00 | 0.00 | 0.00 | 82 | 1016.1 |
| 20260901230022 | 10 | 185 | 6.4 | 12.9 | 0.00 | 0.00 | 0.00 | 82 | 1016.1 |
| 20260901225513 | 10 | 199 | 6.4 | 14.5 | 0.00 | 0.00 | 0.00 | 82 | 1016.0 |
| 20260901225005 | 10 | 194 | 9.7 | 14.5 | 0.00 | 0.00 | 0.00 | 82 | 1016.1 |
| 20260901224529 | 10 | 196 | 8.0 | 12.9 | 0.00 | 0.00 | 0.00 | 82 | 1016.1 |
| 20260901224010 | 10 | 196 | 6.4 | 12.9 | 0.00 | 0.00 | 0.00 | 83 | 1016.1 |
| 20260901223513 | 10 | 189 | 4.8 | 8.0 | 0.00 | 0.00 | 0.00 | 83 | 1016.1 |
| 20260901223024 | 10 | 148 | 3.2 | 8.0 | 0.00 | 0.00 | 0.00 | 83 | 1016.1 |
| 20260901222508 | 10 | 104 | 4.8 | 8.0 | 0.00 | 0.00 | 0.00 | 83 | 1016.0 |
| 20260901222016 | 10 | 113 | 4.8 | 8.0 | 0.00 | 0.00 | 0.00 | 83 | 1016.1 |
| 20260901221521 | 10 | 133 | 6.4 | 8.0 | 0.00 | 0.00 | 0.00 | 83 | 1016.0 |
| 20260901221008 | 10 | 113 | 1.6 | 6.4 | 0.00 | 0.00 | 0.00 | 83 | 1015.9 |
| 20260901220505 | 10 | 160 | 1.6 | 6.4 | 0.00 | 0.00 | 0.00 | 83 | 1015.9 |
| 20260901220027 | 10 | 135 | 1.6 | 6.4 | 0.00 | 0.00 | 0.00 | 83 | 1015.8 |
| 20260901215512 | 10 | 137 | 3.2 | 8.0 | 0.00 | 0.00 | 0.00 | 83 | 1015.7 |
| 20260901215011 | 10 | 115 | 4.8 | 8.0 | 0.00 | 0.00 | 0.00 | 84 | 1015.6 |
| 20260901214509 | 10 | 145 | 3.2 | 6.4 | 0.00 | 0.00 | 0.00 | 84 | 1015.6 |
| 20260901214013 | 10 | 147 | 4.8 | 6.4 | 0.00 | 0.00 | 0.00 | 84 | 1015.5 |
| 20260901213512 | 10 | 153 | 3.2 | 4.8 | 0.00 | 0.00 | 0.00 | 84 | 1015.6 |
| 20260901213057 | 10 | 145 | 0.0 | 4.8 | 0.00 | 0.00 | 0.00 | 84 | 1015.6 |
| 20260901212514 | 10 | 145 | 1.6 | 6.4 | 0.00 | 0.00 | 0.00 | 84 | 1015.5 |
| 20260901212014 | 10 | 145 | 3.2 | 6.4 | 0.00 | 0.00 | 0.00 | 84 | 1015.4 |
| 20260901211514 | 10 | 153 | 1.6 | 4.8 | 0.00 | 0.00 | 0.00 | 84 | 1015.3 |
| 20260901211019 | 10 | 153 | 1.6 | 4.8 | 0.00 | 0.00 | 0.00 | 84 | 1015.3 |
| 20260901210511 | 10 | 153 | 0.0 | 4.8 | 0.00 | 0.00 | 0.00 | 84 | 1015.3 |
| 20260901210033 | 10 | 189 | 3.2 | 4.8 | 0.00 | 0.00 | 0.00 | 84 | 1015.3 |
| 20260901205518 | 10 | 197 | 0.0 | 4.8 | 0.00 | 0.00 | 0.00 | 83 | 1015.2 |
| 20260901205009 | 10 | 197 | 0.0 | 8.0 | 0.00 | 0.00 | 0.00 | 83 | 1015.3 |
| 20260901204512 | 10 | 197 | 3.2 | 8.0 | 0.00 | 0.00 | 0.00 | 83 | 1015.1 |
| 20260901204012 | 10 | 185 | 6.4 | 8.0 | 0.00 | 0.00 | 0.00 | 83 | 1015.0 |
| 20260901203510 | 10 | 191 | 4.8 | 8.0 | 0.00 | 0.00 | 0.00 | 83 | 1014.9 |
| 20260901203042 | 10 | 200 | 3.2 | 8.0 | 0.00 | 0.00 | 0.00 | 83 | 1015.1 |
| 20260901202511 | 10 | 202 | 4.8 | 8.0 | 0.00 | 0.00 | 0.00 | 83 | 1015.1 |
| 20260901202017 | 10 | 185 | 4.8 | 8.0 | 0.00 | 0.00 | 0.00 | 83 | 1015.0 |
| 20260901201525 | 10 | 197 | 3.2 | 8.0 | 0.00 | 0.00 | 0.00 | 83 | 1014.8 |
| 20260901201015 | 10 | 236 | 3.2 | 12.9 | 0.00 | 0.00 | 0.00 | 83 | 1014.7 |
| 20260901200515 | 10 | 206 | 6.4 | 12.9 | 0.00 | 0.00 | 0.00 | 83 | 1014.7 |
| 20260901200031 | 10 | 206 | 6.4 | 12.9 | 0.00 | 0.00 | 0.00 | 83 | 1014.7 |
| 20260901195514 | 10 | 164 | 4.8 | 16.1 | 0.00 | 0.00 | 0.00 | 83 | 1014.7 |
| 20260901195020 | 10 | 191 | 8.0 | 17.7 | 0.00 | 0.00 | 0.00 | 83 | 1014.6 |
| 20260901194523 | 10 | 167 | 8.0 | 17.7 | 0.00 | 0.00 | 0.00 | 83 | 1014.6 |
| 20260901194020 | 10 | 185 | 8.0 | 17.7 | 0.00 | 0.00 | 0.00 | 82 | 1014.6 |
| 20260901193508 | 11 | 180 | 11.3 | 19.3 | 0.00 | 0.00 | 0.00 | 82 | 1014.5 |
| 20260901193019 | 11 | 204 | 14.5 | 20.9 | 0.00 | 0.00 | 0.00 | 81 | 1014.3 |
| 20260901192512 | 11 | 149 | 12.9 | 20.9 | 0.00 | 0.00 | 0.00 | 80 | 1014.2 |
| 20260901192013 | 12 | 214 | 12.9 | 19.3 | 0.00 | 0.00 | 0.00 | 80 | 1014.1 |
| 20260901191525 | 12 | 199 | 11.3 | 17.7 | 0.00 | 0.00 | 0.00 | 79 | 1014.1 |
| 20260901191017 | 12 | 240 | 6.4 | 12.9 | 0.00 | 0.00 | 0.00 | 78 | 1013.9 |
| 20260901190514 | 12 | 8 | 4.8 | 17.7 | 0.00 | 0.00 | 0.00 | 78 | 1013.8 |
| 20260901190029 | 12 | 29 | 8.0 | 17.7 | 0.00 | 0.00 | 0.00 | 78 | 1013.7 |
| 20260901185517 | 12 | 14 | 8.0 | 17.7 | 0.00 | 0.00 | 0.00 | 78 | 1013.7 |
| 20260901185009 | 12 | 4 | 4.8 | 17.7 | 0.00 | 0.00 | 0.00 | 78 | 1013.7 |
| 20260901184532 | 12 | 349 | 4.8 | 12.9 | 0.00 | 0.00 | 0.00 | 78 | 1013.8 |
| 20260901184017 | 12 | 26 | 3.2 | 14.5 | 0.00 | 0.00 | 0.00 | 78 | 1013.7 |
| 20260901183517 | 12 | 3 | 9.7 | 14.5 | 0.00 | 0.00 | 0.00 | 78 | 1013.7 |
| 20260901183040 | 12 | 14 | 6.4 | 14.5 | 0.00 | 0.00 | 0.00 | 78 | 1013.6 |
| 20260901182512 | 12 | 8 | 8.0 | 14.5 | 0.00 | 0.00 | 0.00 | 78 | 1013.6 |
| 20260901182019 | 12 | 356 | 8.0 | 16.1 | 0.00 | 0.00 | 0.00 | 78 | 1013.6 |
| 20260901181523 | 12 | 314 | 8.0 | 16.1 | 0.00 | 0.00 | 0.00 | 78 | 1013.6 |
| 20260901181012 | 12 | 346 | 9.7 | 17.7 | 0.00 | 0.00 | 0.00 | 77 | 1013.5 |
| 20260901180516 | 12 | 332 | 11.3 | 17.7 | 0.00 | 0.00 | 0.00 | 77 | 1013.4 |
| 20260901180025 | 12 | 341 | 11.3 | 17.7 | 0.00 | 0.00 | 0.00 | 77 | 1013.4 |
| 20260901175516 | 12 | 326 | 9.7 | 17.7 | 0.00 | 0.00 | 0.00 | 77 | 1013.6 |
| 20260901175016 | 12 | 326 | 11.3 | 22.5 | 0.00 | 0.00 | 0.00 | 77 | 1013.6 |
| 20260901174526 | 12 | 346 | 12.9 | 22.5 | 0.00 | 0.00 | 0.00 | 76 | 1013.5 |
| 20260901174018 | 12 | 358 | 11.3 | 19.3 | 0.00 | 0.00 | 0.00 | 76 | 1013.5 |
| 20260901173521 | 12 | 343 | 9.7 | 17.7 | 0.00 | 0.00 | 0.00 | 76 | 1013.7 |
| 20260901173047 | 12 | 318 | 8.0 | 16.1 | 0.00 | 0.00 | 0.00 | 76 | 1013.8 |
| 20260901172508 | 12 | 333 | 8.0 | 14.5 | 0.00 | 0.00 | 0.00 | 76 | 1013.7 |
| 20260901172003 | 12 | 333 | 9.7 | 14.5 | 0.00 | 0.00 | 0.00 | 75 | 1013.6 |
| 20260901171517 | 12 | 324 | 8.0 | 14.5 | 0.00 | 0.00 | 0.00 | 75 | 1013.7 |
| 20260901171003 | 12 | 358 | 9.7 | 17.7 | 0.00 | 0.00 | 0.00 | 75 | 1013.6 |
| 20260901170503 | 12 | 345 | 11.3 | 17.7 | 0.00 | 0.00 | 0.00 | 75 | 1013.6 |
| 20260901170005 | 12 | 12 | 9.7 | 19.3 | 0.00 | 0.00 | 0.00 | 75 | 1013.7 |
| 20260901165504 | 12 | 29 | 11.3 | 19.3 | 0.00 | 0.00 | 0.00 | 76 | 1013.6 |
| 20260901165002 | 12 | 16 | 9.7 | 16.1 | 0.00 | 0.00 | 0.00 | 76 | 1013.7 |
| 20260901164505 | 12 | 342 | 9.7 | 16.1 | 0.00 | 0.00 | 0.00 | 75 | 1013.9 |
| 20260901164003 | 12 | 318 | 6.4 | 16.1 | 0.00 | 0.00 | 0.00 | 75 | 1013.9 |
| 20260901163506 | 12 | 320 | 9.7 | 16.1 | 0.00 | 0.00 | 0.00 | 76 | 1013.9 |
| 20260901163010 | 12 | 342 | 11.3 | 16.1 | 0.00 | 0.00 | 0.00 | 75 | 1014.0 |
| 20260901162504 | 12 | 314 | 8.0 | 14.5 | 0.00 | 0.00 | 0.00 | 76 | 1013.9 |
| 20260901162008 | 12 | 324 | 6.4 | 20.9 | 0.00 | 0.00 | 0.00 | 75 | 1013.8 |
| 20260901161507 | 12 | 343 | 11.3 | 20.9 | 0.00 | 0.00 | 0.00 | 75 | 1013.8 |
| 20260901161010 | 12 | 1 | 12.9 | 19.3 | 0.00 | 0.00 | 0.00 | 74 | 1013.8 |
| 20260901160508 | 12 | 358 | 12.9 | 22.5 | 0.00 | 0.00 | 0.00 | 74 | 1013.9 |
| 20260901160006 | 12 | 340 | 12.9 | 24.1 | 0.00 | 0.00 | 0.00 | 73 | 1013.9 |
| 20260901155509 | 12 | 331 | 16.1 | 29.0 | 0.00 | 0.00 | 0.00 | 73 | 1013.9 |
| 20260901155005 | 12 | 313 | 16.1 | 29.0 | 0.00 | 0.00 | 0.00 | 73 | 1014.0 |
| 20260901154504 | 13 | 341 | 17.7 | 41.8 | 0.00 | 0.00 | 0.00 | 72 | 1014.0 |
| 20260901154004 | 13 | 342 | 17.7 | 41.8 | 0.00 | 0.00 | 0.00 | 71 | 1013.9 |
| 20260901153505 | 13 | 342 | 22.5 | 29.0 | 0.00 | 0.00 | 0.00 | 72 | 1013.9 |
| 20260901153007 | 13 | 336 | 17.7 | 29.0 | 0.00 | 0.00 | 0.00 | 71 | 1014.0 |
| 20260901152512 | 13 | 354 | 19.3 | 29.0 | 0.00 | 0.00 | 0.00 | 71 | 1013.9 |
| 20260901152004 | 13 | 330 | 17.7 | 29.0 | 0.00 | 0.00 | 0.00 | 71 | 1013.9 |
| 20260901151512 | 13 | 335 | 17.7 | 29.0 | 0.00 | 0.00 | 0.00 | 70 | 1013.9 |
| 20260901151020 | 13 | 331 | 17.7 | 35.4 | 0.00 | 0.00 | 0.00 | 70 | 1013.8 |
| 20260901150503 | 13 | 341 | 19.3 | 35.4 | 0.00 | 0.00 | 0.00 | 70 | 1013.8 |
| 20260901150014 | 13 | 345 | 19.3 | 33.8 | 0.00 | 0.00 | 0.00 | 69 | 1014.0 |
| 20260901145504 | 13 | 352 | 19.3 | 33.8 | 0.00 | 0.00 | 0.00 | 69 | 1014.0 |
| 20260901145012 | 13 | 346 | 22.5 | 35.4 | 0.00 | 0.00 | 0.00 | 69 | 1013.9 |
| 20260901144523 | 13 | 341 | 22.5 | 35.4 | 0.00 | 0.00 | 0.00 | 69 | 1013.9 |
| 20260901144004 | 13 | 351 | 19.3 | 33.8 | 0.00 | 0.00 | 0.00 | 70 | 1014.0 |
| 20260901143513 | 13 | 348 | 19.3 | 33.8 | 0.00 | 0.00 | 0.00 | 70 | 1014.0 |
| 20260901143005 | 13 | 329 | 17.7 | 30.6 | 0.00 | 0.00 | 0.00 | 70 | 1014.0 |
| 20260901142504 | 13 | 336 | 19.3 | 32.2 | 0.00 | 0.00 | 0.00 | 71 | 1014.0 |
| 20260901142006 | 13 | 22 | 19.3 | 32.2 | 0.00 | 0.00 | 0.00 | 71 | 1013.9 |
| 20260901141508 | 13 | 351 | 19.3 | 30.6 | 0.00 | 0.00 | 0.00 | 71 | 1013.9 |
| 20260901141008 | 13 | 349 | 19.3 | 32.2 | 0.00 | 0.00 | 0.00 | 70 | 1014.0 |
| 20260901140506 | 13 | 14 | 19.3 | 32.2 | 0.00 | 0.00 | 0.00 | 70 | 1014.0 |
| 20260901140005 | 13 | 16 | 17.7 | 29.0 | 0.00 | 0.00 | 0.00 | 70 | 1013.9 |
| 20260901135508 | 13 | 345 | 19.3 | 29.0 | 0.00 | 0.00 | 0.00 | 70 | 1014.0 |
| 20260901135008 | 13 | 327 | 17.7 | 30.6 | 0.00 | 0.00 | 0.00 | 71 | 1014.1 |
| 20260901134523 | 13 | 341 | 17.7 | 30.6 | 0.00 | 0.00 | 0.00 | 71 | 1014.3 |
| 20260901134019 | 13 | 1 | 14.5 | 27.4 | 0.00 | 0.00 | 0.00 | 71 | 1014.3 |
| 20260901133507 | 13 | 353 | 14.5 | 24.1 | 0.00 | 0.00 | 0.00 | 71 | 1014.2 |
| 20260901133028 | 13 | 337 | 12.9 | 20.9 | 0.00 | 0.00 | 0.00 | 71 | 1014.2 |
| 20260901132510 | 13 | 8 | 12.9 | 20.9 | 0.00 | 0.00 | 0.00 | 71 | 1014.3 |
| 20260901132004 | 13 | 21 | 12.9 | 20.9 | 0.00 | 0.00 | 0.00 | 70 | 1014.3 |
| 20260901131506 | 13 | 19 | 9.7 | 25.7 | 0.00 | 0.00 | 0.00 | 69 | 1014.4 |
| 20260901131006 | 13 | 327 | 14.5 | 25.7 | 0.00 | 0.00 | 0.00 | 68 | 1014.6 |
| 20260901130506 | 13 | 322 | 16.1 | 25.7 | 0.00 | 0.00 | 0.00 | 68 | 1014.4 |
| 20260901130018 | 13 | 3 | 16.1 | 25.7 | 0.00 | 0.00 | 0.00 | 68 | 1014.5 |
| 20260901125506 | 13 | 316 | 14.5 | 25.7 | 0.00 | 0.00 | 0.00 | 69 | 1014.5 |
| 20260901125008 | 13 | 335 | 14.5 | 30.6 | 0.00 | 0.00 | 0.00 | 69 | 1014.4 |
| 20260901124515 | 13 | 348 | 20.9 | 33.8 | 0.00 | 0.00 | 0.00 | 69 | 1014.4 |
| 20260901124010 | 13 | 342 | 20.9 | 33.8 | 0.00 | 0.00 | 0.00 | 68 | 1014.5 |
| 20260901123515 | 13 | 350 | 19.3 | 29.0 | 0.00 | 0.00 | 0.00 | 69 | 1014.4 |
| 20260901123019 | 13 | 352 | 19.3 | 30.6 | 0.00 | 0.00 | 0.00 | 69 | 1014.4 |
| 20260901122517 | 13 | 339 | 20.9 | 37.0 | 0.00 | 0.00 | 0.00 | 69 | 1014.5 |
| 20260901122012 | 13 | 12 | 20.9 | 37.0 | 0.00 | 0.00 | 0.00 | 69 | 1014.5 |
| 20260901121511 | 13 | 342 | 20.9 | 35.4 | 0.00 | 0.00 | 0.00 | 69 | 1014.6 |
| 20260901121015 | 14 | 349 | 20.9 | 37.0 | 0.00 | 0.00 | 0.00 | 68 | 1014.6 |
| 20260901120510 | 14 | 339 | 22.5 | 38.6 | 0.00 | 0.00 | 0.00 | 68 | 1014.6 |
| 20260901120048 | 14 | 337 | 24.1 | 38.6 | 0.00 | 0.00 | 0.00 | 68 | 1014.7 |
| 20260901115507 | 14 | 323 | 24.1 | 38.6 | 0.00 | 0.00 | 0.00 | 68 | 1014.9 |
| 20260901115014 | 14 | 325 | 24.1 | 37.0 | 0.00 | 0.00 | 0.00 | 68 | 1014.9 |
| 20260901114512 | 14 | 318 | 22.5 | 35.4 | 0.00 | 0.00 | 0.00 | 67 | 1015.0 |
| 20260901114007 | 15 | 322 | 22.5 | 41.8 | 0.00 | 0.00 | 0.00 | 67 | 1015.0 |
| 20260901113508 | 15 | 328 | 24.1 | 41.8 | 0.00 | 0.00 | 0.00 | 67 | 1015.2 |
| 20260901113018 | 15 | 352 | 20.9 | 37.0 | 0.00 | 0.00 | 0.00 | 67 | 1015.2 |
| 20260901112511 | 15 | 343 | 22.5 | 33.8 | 0.00 | 0.00 | 0.00 | 66 | 1015.1 |
| 20260901112011 | 14 | 339 | 19.3 | 32.2 | 0.00 | 0.00 | 0.00 | 67 | 1015.0 |
| 20260901111521 | 14 | 342 | 20.9 | 30.6 | 0.00 | 0.00 | 0.00 | 66 | 1014.8 |
| 20260901111008 | 15 | 332 | 17.7 | 37.0 | 0.00 | 0.00 | 0.00 | 66 | 1014.7 |
| 20260901110517 | 15 | 332 | 20.9 | 37.0 | 0.00 | 0.00 | 0.00 | 65 | 1014.6 |
| 20260901110019 | 15 | 347 | 19.3 | 30.6 | 0.00 | 0.00 | 0.00 | 65 | 1014.6 |
| 20260901105518 | 15 | 338 | 19.3 | 30.6 | 0.00 | 0.00 | 0.00 | 65 | 1014.6 |
| 20260901105017 | 15 | 350 | 19.3 | 33.8 | 0.00 | 0.00 | 0.00 | 64 | 1014.5 |
| 20260901104516 | 15 | 10 | 19.3 | 33.8 | 0.00 | 0.00 | 0.00 | 64 | 1014.4 |
| 20260901104022 | 15 | 341 | 19.3 | 33.8 | 0.00 | 0.00 | 0.00 | 64 | 1014.4 |
| 20260901103511 | 15 | 349 | 16.1 | 33.8 | 0.00 | 0.00 | 0.00 | 64 | 1014.5 |
| 20260901103018 | 15 | 343 | 24.1 | 33.8 | 0.00 | 0.00 | 0.00 | 63 | 1014.5 |
| 20260901102512 | 15 | 336 | 22.5 | 33.8 | 0.00 | 0.00 | 0.00 | 63 | 1014.3 |
| 20260901102013 | 15 | 336 | 20.9 | 33.8 | 0.00 | 0.00 | 0.00 | 63 | 1014.2 |
| 20260901101523 | 15 | 343 | 22.5 | 40.2 | 0.00 | 0.00 | 0.00 | 63 | 1014.3 |
| 20260901101013 | 15 | 14 | 22.5 | 40.2 | 0.00 | 0.00 | 0.00 | 62 | 1014.4 |
| 20260901100513 | 15 | 352 | 24.1 | 37.0 | 0.00 | 0.00 | 0.00 | 62 | 1014.5 |
| 20260901100026 | 16 | 345 | 22.5 | 38.6 | 0.00 | 0.00 | 0.00 | 61 | 1014.5 |
| 20260901095514 | 16 | 2 | 25.7 | 38.6 | 0.00 | 0.00 | 0.00 | 61 | 1014.3 |
| 20260901095010 | 16 | 335 | 22.5 | 43.5 | 0.00 | 0.00 | 0.00 | 61 | 1014.2 |
| 20260901094533 | 16 | 10 | 24.1 | 43.5 | 0.00 | 0.00 | 0.00 | 61 | 1014.2 |
| 20260901094013 | 16 | 18 | 19.3 | 40.2 | 0.00 | 0.00 | 0.00 | 61 | 1014.3 |
| 20260901093519 | 16 | 358 | 20.9 | 37.0 | 0.00 | 0.00 | 0.00 | 61 | 1014.4 |
| 20260901093027 | 16 | 62 | 17.7 | 33.8 | 0.00 | 0.00 | 0.00 | 62 | 1014.3 |
| 20260901092512 | 16 | 345 | 17.7 | 33.8 | 0.00 | 0.00 | 0.00 | 62 | 1014.3 |
| 20260901092011 | 16 | 349 | 17.7 | 32.2 | 0.00 | 0.00 | 0.00 | 62 | 1014.4 |
| 20260901091519 | 16 | 350 | 19.3 | 32.2 | 0.00 | 0.00 | 0.00 | 62 | 1014.5 |
| 20260901091009 | 16 | 32 | 14.5 | 29.0 | 0.00 | 0.00 | 0.00 | 62 | 1014.7 |
| 20260901090512 | 16 | 337 | 16.1 | 29.0 | 0.00 | 0.00 | 0.00 | 62 | 1014.8 |
| 20260901090023 | 16 | 23 | 12.9 | 27.4 | 0.00 | 0.00 | 0.00 | 63 | 1014.8 |
| 20260901085515 | 15 | 17 | 9.7 | 27.4 | 0.00 | 0.00 | 0.00 | 63 | 1014.8 |
| 20260901085014 | 15 | 341 | 9.7 | 25.7 | 0.00 | 0.00 | 0.00 | 63 | 1014.9 |
| 20260901084517 | 15 | 25 | 8.0 | 25.7 | 0.00 | 0.00 | 0.00 | 63 | 1014.9 |
| 20260901084014 | 15 | 355 | 9.7 | 32.2 | 0.00 | 0.00 | 0.00 | 63 | 1014.9 |
| 20260901083512 | 15 | 10 | 8.0 | 32.2 | 0.00 | 0.00 | 0.00 | 63 | 1014.9 |
| 20260901083035 | 15 | 21 | 9.7 | 24.1 | 0.00 | 0.00 | 0.00 | 63 | 1015.0 |
| 20260901082504 | 16 | 15 | 11.3 | 24.1 | 0.00 | 0.00 | 0.00 | 62 | 1015.2 |
| 20260901082010 | 16 | 347 | 14.5 | 24.1 | 0.00 | 0.00 | 0.00 | 62 | 1015.1 |
| 20260901081513 | 16 | 9 | 11.3 | 29.0 | 0.00 | 0.00 | 0.00 | 62 | 1015.1 |
| 20260901081004 | 16 | 16 | 11.3 | 29.0 | 0.00 | 0.00 | 0.00 | 62 | 1015.3 |
| 20260901080512 | 16 | 339 | 12.9 | 24.1 | 0.00 | 0.00 | 0.00 | 62 | 1015.4 |
| 20260901080009 | 16 | 360 | 14.5 | 24.1 | 0.00 | 0.00 | 0.00 | 61 | 1015.5 |
| 20260901075512 | 16 | 343 | 12.9 | 24.1 | 0.00 | 0.00 | 0.00 | 62 | 1015.5 |
| 20260901075009 | 16 | 355 | 12.9 | 29.0 | 0.00 | 0.00 | 0.00 | 61 | 1015.6 |
| 20260901074507 | 16 | 10 | 16.1 | 29.0 | 0.00 | 0.00 | 0.00 | 61 | 1015.6 |
| 20260901074004 | 16 | 10 | 14.5 | 24.1 | 0.00 | 0.00 | 0.00 | 62 | 1015.3 |
| 20260901073504 | 16 | 337 | 14.5 | 27.4 | 0.00 | 0.00 | 0.00 | 62 | 1015.3 |
| 20260901073006 | 16 | 341 | 17.7 | 32.2 | 0.00 | 0.00 | 0.00 | 61 | 1015.6 |
| 20260901072507 | 16 | 349 | 16.1 | 32.2 | 0.00 | 0.00 | 0.00 | 61 | 1015.4 |
| 20260901072006 | 16 | 341 | 16.1 | 27.4 | 0.00 | 0.00 | 0.00 | 61 | 1015.3 |
| 20260901071521 | 16 | 337 | 17.7 | 35.4 | 0.00 | 0.00 | 0.00 | 61 | 1015.4 |
| 20260901071008 | 16 | 329 | 17.7 | 35.4 | 0.00 | 0.00 | 0.00 | 61 | 1015.3 |
| 20260901070504 | 16 | 348 | 17.7 | 27.4 | 0.00 | 0.00 | 0.00 | 60 | 1015.2 |
| 20260901070023 | 16 | 343 | 20.9 | 35.4 | 0.00 | 0.00 | 0.00 | 59 | 1015.4 |
| 20260901065510 | 16 | 325 | 20.9 | 35.4 | 0.00 | 0.00 | 0.00 | 59 | 1015.3 |
| 20260901065004 | 16 | 333 | 19.3 | 35.4 | 0.00 | 0.00 | 0.00 | 58 | 1015.2 |
| 20260901064526 | 16 | 316 | 20.9 | 45.1 | 0.00 | 0.00 | 0.00 | 57 | 1015.1 |
| 20260901064007 | 16 | 344 | 24.1 | 45.1 | 0.00 | 0.00 | 0.00 | 57 | 1015.0 |
| 20260901063514 | 16 | 337 | 22.5 | 38.6 | 0.00 | 0.00 | 0.00 | 57 | 1015.0 |
| 20260901063015 | 16 | 352 | 20.9 | 46.7 | 0.00 | 0.00 | 0.00 | 57 | 1015.2 |
| 20260901062504 | 16 | 7 | 27.4 | 46.7 | 0.00 | 0.00 | 0.00 | 56 | 1015.2 |
| 20260901062011 | 17 | 345 | 24.1 | 43.5 | 0.00 | 0.00 | 0.00 | 56 | 1015.1 |
| 20260901061509 | 17 | 4 | 20.9 | 43.5 | 0.00 | 0.00 | 0.00 | 56 | 1014.8 |
| 20260901061008 | 17 | 339 | 20.9 | 43.5 | 0.00 | 0.00 | 0.00 | 57 | 1014.8 |
| 20260901060509 | 16 | 10 | 19.3 | 37.0 | 0.00 | 0.00 | 0.00 | 58 | 1014.8 |
| 20260901060012 | 16 | 24 | 16.1 | 41.8 | 0.00 | 0.00 | 0.00 | 59 | 1015.0 |
| 20260901055511 | 17 | 340 | 25.7 | 48.3 | 0.00 | 0.00 | 0.00 | 57 | 1014.9 |
| 20260901055014 | 17 | 339 | 24.1 | 49.9 | 0.00 | 0.00 | 0.00 | 57 | 1015.0 |
| 20260901054513 | 17 | 346 | 29.0 | 49.9 | 0.00 | 0.00 | 0.00 | 56 | 1015.1 |
| 20260901054013 | 17 | 23 | 25.7 | 45.1 | 0.00 | 0.00 | 0.00 | 57 | 1015.1 |
| 20260901053510 | 17 | 340 | 25.7 | 49.9 | 0.00 | 0.00 | 0.00 | 56 | 1015.1 |
| 20260901053037 | 17 | 1 | 29.0 | 51.5 | 0.00 | 0.00 | 0.00 | 56 | 1015.2 |
| 20260901052502 | 18 | 349 | 27.4 | 51.5 | 0.00 | 0.00 | 0.00 | 57 | 1015.2 |
| 20260901052007 | 17 | 341 | 25.7 | 45.1 | 0.00 | 0.00 | 0.00 | 57 | 1015.2 |
| 20260901051504 | 17 | 341 | 25.7 | 46.7 | 0.00 | 0.00 | 0.00 | 58 | 1015.2 |
| 20260901051003 | 17 | 328 | 24.1 | 49.9 | 0.00 | 0.00 | 0.00 | 55 | 1015.2 |
| 20260901050507 | 17 | 352 | 33.8 | 51.5 | 0.00 | 0.00 | 0.00 | 54 | 1015.3 |
| 20260901050004 | 17 | 333 | 32.2 | 57.9 | 0.00 | 0.00 | 0.00 | 55 | 1015.6 |
| 20260901045508 | 17 | 345 | 35.4 | 59.5 | 0.00 | 0.00 | 0.00 | 54 | 1015.4 |
| 20260901045004 | 17 | 348 | 33.8 | 59.5 | 0.00 | 0.00 | 0.00 | 55 | 1015.3 |
| 20260901044516 | 17 | 1 | 37.0 | 54.7 | 0.00 | 0.00 | 0.00 | 54 | 1015.2 |
| 20260901044008 | 18 | 330 | 33.8 | 53.1 | 0.00 | 0.00 | 0.00 | 56 | 1015.3 |
| 20260901043506 | 18 | 356 | 37.0 | 49.9 | 0.00 | 0.00 | 0.00 | 56 | 1015.2 |
| 20260901043017 | 18 | 352 | 30.6 | 53.1 | 0.00 | 0.00 | 0.00 | 57 | 1015.3 |
| 20260901042508 | 18 | 358 | 32.2 | 53.1 | 0.00 | 0.00 | 0.00 | 57 | 1015.2 |
| 20260901042004 | 18 | 349 | 27.4 | 53.1 | 0.00 | 0.00 | 0.00 | 59 | 1015.1 |
| 20260901041504 | 17 | 320 | 33.8 | 56.3 | 0.00 | 0.00 | 0.00 | 57 | 1015.1 |
| 20260901041003 | 17 | 337 | 37.0 | 59.5 | 0.00 | 0.00 | 0.00 | 57 | 1015.1 |
| 20260901040503 | 17 | 358 | 38.6 | 59.5 | 0.00 | 0.00 | 0.00 | 58 | 1015.4 |
| 20260901040006 | 17 | 330 | 32.2 | 61.2 | 0.00 | 0.00 | 0.00 | 58 | 1015.2 |
| 20260901035501 | 17 | 14 | 33.8 | 61.2 | 0.00 | 0.00 | 0.00 | 58 | 1015.1 |
| 20260901035008 | 17 | 7 | 37.0 | 61.2 | 0.00 | 0.00 | 0.00 | 58 | 1015.1 |
| 20260901034514 | 17 | 324 | 35.4 | 59.5 | 0.00 | 0.00 | 0.00 | 58 | 1015.3 |
| 20260901034010 | 17 | 339 | 38.6 | 59.5 | 0.00 | 0.00 | 0.00 | 57 | 1015.5 |
| 20260901033510 | 17 | 331 | 32.2 | 57.9 | 0.00 | 0.00 | 0.00 | 58 | 1015.5 |
| 20260901033008 | 17 | 341 | 35.4 | 56.3 | 0.00 | 0.00 | 0.00 | 58 | 1015.8 |
| 20260901032512 | 17 | 318 | 33.8 | 53.1 | 0.00 | 0.00 | 0.00 | 58 | 1015.9 |
| 20260901032009 | 17 | 332 | 27.4 | 72.4 | 0.00 | 0.00 | 0.00 | 60 | 1016.0 |
| 20260901031507 | 17 | 351 | 32.2 | 72.4 | 0.00 | 0.00 | 0.00 | 60 | 1016.2 |
| 20260901031011 | 17 | 318 | 43.5 | 70.8 | 0.00 | 0.00 | 0.00 | 59 | 1016.2 |
| 20260901030503 | 17 | 2 | 27.4 | 67.6 | 0.00 | 0.00 | 0.00 | 61 | 1016.7 |
| 20260901030005 | 17 | 341 | 32.2 | 67.6 | 0.00 | 0.00 | 0.00 | 59 | 1016.8 |
| 20260901025505 | 17 | 318 | 38.6 | 72.4 | 0.00 | 0.00 | 0.00 | 60 | 1016.7 |
| 20260901025010 | 16 | 20 | 32.2 | 72.4 | 0.00 | 0.00 | 0.00 | 61 | 1017.1 |
| 20260901024513 | 17 | 345 | 33.8 | 59.5 | 0.00 | 0.00 | 0.00 | 59 | 1017.2 |
| 20260901024011 | 17 | 348 | 37.0 | 59.5 | 0.00 | 0.00 | 0.00 | 60 | 1017.1 |
| 20260901023510 | 17 | 3 | 32.2 | 61.2 | 0.00 | 0.00 | 0.00 | 61 | 1017.3 |
| 20260901023024 | 16 | 341 | 29.0 | 61.2 | 0.00 | 0.00 | 0.00 | 62 | 1017.3 |
| 20260901022506 | 16 | 10 | 33.8 | 59.5 | 0.00 | 0.00 | 0.00 | 62 | 1017.3 |